Boise, ID

12:37 AM MDT on June 26, 2017 (GMT -0600)
Boise Air Term

Weather History for KBOI - March, 2013

Change the Weather History Date:

Friday, March 29, 2013

  Actual Average Record
Temperature  
Mean Temperature 56 °F 47 °F  
Max Temperature 67 °F 58 °F 81 °F (1978)
Min Temperature 44 °F 37 °F 20 °F (1949)
Degree Days  
Heating Degree Days 9 18  
Month to date heating degree days 591 602  
Since 1 July heating degree days 4688 4761  
Cooling Degree Days 0 0  
Month to date cooling degree days 0 0  
Year to date cooling degree days 0 0  
Growing Degree Days 5 (Base 50)    
Moisture  
Dew Point 35 °F    
Average Humidity 50    
Maximum Humidity 70    
Minimum Humidity 29    
Precipitation  
Precipitation T in 0.05 in 2.46 in (1904)
Month to date precipitation 0.29 1.30  
Year to date precipitation 2.13 3.53  
Snow  
Snow 0.00 in 0.00 in 3.00 in (1904)
Month to date snowfall 0.3 1.2  
Since 1 July snowfall 16.0 18.8  
Snow Depth 0.00 in    
Sea Level Pressure  
Sea Level Pressure 30.11 in    
Wind  
Wind Speed 6 mph (NNE)    
Max Wind Speed 14 mph    
Max Gust Speed 24 mph    
Visibility 10 miles    
Events      
T = Trace of Precipitation, MM = Missing Value Source: NWS Daily Summary

Daily Weather History Graph

Daily Weather History Graph

Search for Another Location

Airport or City:

Trip Planner

Search our weather history database for the weather conditions in past years. The results will help you decide how hot, cold, wet, or windy it might be!

Date:

Astronomy

Mar. 29, 2013 Rise Set
Actual Time 7:31 AM MDT 8:08 PM MDT
Civil Twilight 7:02 AM MDT 8:37 PM MDT
Nautical Twilight 6:28 AM MDT 9:11 PM MDT
Astronomical Twilight 5:53 AM MDT 9:46 PM MDT
Moon 11:20 PM MDT (3/29) 8:37 AM MDT (3/29)
Length of Visible Light 13h 34m
Length of Day
12h 37m
Waning Gibbous, 93% of the Moon is Illuminated
Mar 29
Waning Gibbous
Apr 2
Last Quarter
Apr 10
New
Apr 18
First Quarter
Apr 25
Full

Hourly Weather History & Observations

Time (MDT) Temp. Dew Point Humidity Pressure Visibility Wind Dir Wind Speed Gust Speed Precip Events Conditions
12:53 AM 53.1 °F 37.0 °F 55% 30.03 in 10.0 mi SSE 8.1 mph - N/A   Scattered Clouds
1:53 AM 53.1 °F 36.0 °F 52% 30.03 in 10.0 mi SE 8.1 mph - N/A   Overcast
2:53 AM 51.1 °F 36.0 °F 56% 30.04 in 10.0 mi SE 8.1 mph - N/A   Overcast
3:53 AM 51.1 °F 36.0 °F 56% 30.04 in 10.0 mi ESE 3.5 mph - N/A   Mostly Cloudy
4:53 AM 48.9 °F 35.1 °F 59% 30.06 in 10.0 mi Variable 4.6 mph - N/A   Mostly Cloudy
5:53 AM 48.9 °F 36.0 °F 61% 30.08 in 10.0 mi SSE 4.6 mph - N/A   Mostly Cloudy
6:53 AM 46.9 °F 36.0 °F 66% 30.10 in 10.0 mi SSE 4.6 mph - N/A   Mostly Cloudy
7:53 AM 45.0 °F 35.1 °F 68% 30.13 in 10.0 mi Calm Calm - N/A   Partly Cloudy
8:53 AM 48.9 °F 37.9 °F 66% 30.14 in 10.0 mi Calm Calm - N/A   Mostly Cloudy
9:53 AM 53.1 °F 37.0 °F 55% 30.16 in 10.0 mi NE 3.5 mph - N/A   Overcast
10:53 AM 55.9 °F 37.9 °F 51% 30.17 in 10.0 mi NNW 6.9 mph - N/A   Overcast
11:53 AM 57.9 °F 37.0 °F 46% 30.17 in 10.0 mi WNW 8.1 mph - N/A   Scattered Clouds
12:53 PM 61.0 °F 37.9 °F 42% 30.16 in 10.0 mi Variable 5.8 mph - N/A   Clear
1:53 PM 63.0 °F 37.0 °F 38% 30.14 in 10.0 mi West 9.2 mph - N/A   Clear
2:53 PM 64.9 °F 35.1 °F 33% 30.13 in 10.0 mi NW 9.2 mph - N/A   Clear
3:53 PM 66.0 °F 34.0 °F 30% 30.11 in 10.0 mi West 8.1 mph 17.3 mph N/A   Clear
4:53 PM 66.0 °F 33.1 °F 29% 30.10 in 10.0 mi North 11.5 mph - N/A   Clear
5:53 PM 66.0 °F 34.0 °F 30% 30.10 in 10.0 mi NNW 8.1 mph - N/A   Clear
6:53 PM 64.9 °F 33.1 °F 31% 30.10 in 10.0 mi NNW 8.1 mph - N/A   Partly Cloudy
7:53 PM 62.1 °F 33.1 °F 34% 30.11 in 10.0 mi NNW 8.1 mph - N/A   Scattered Clouds
8:53 PM 61.0 °F 33.1 °F 35% 30.10 in 10.0 mi North 4.6 mph - N/A   Clear
9:53 PM 57.0 °F 33.1 °F 40% 30.12 in 10.0 mi NE 3.5 mph - N/A   Clear
10:53 PM 51.1 °F 34.0 °F 52% 30.13 in 10.0 mi ESE 4.6 mph - N/A   Clear
11:53 PM 48.9 °F 34.0 °F 56% 30.14 in 10.0 mi SE 5.8 mph - N/A   Clear